Weather History for KY50 - October, 2012

Change the Weather History Date:

Friday, October 5, 2012

  Actual Average (KPCZ) Record (KPCZ)
Temperature  
Mean Temperature 42 °F -  
Max Temperature 50 °F 63 °F 82 °F (2005)
Min Temperature 34 °F 41 °F 24 °F (1965)
Degree Days  
Heating Degree Days 23    
Moisture  
Dew Point 27 °F    
Average Humidity 53    
Maximum Humidity 76    
Minimum Humidity 37    
Precipitation  
Precipitation 0.00 in - - ()
Sea Level Pressure  
Sea Level Pressure 30.05 in    
Wind  
Wind Speed 11 mph (West)    
Max Wind Speed 22 mph    
Max Gust Speed 29 mph    
Visibility 10 miles    
Events      
Averages and records for this station are not official NWS values.
T = Trace of Precipitation, MM = Missing Value Source: NWS Daily Summary

Daily Weather History Graph

Daily Weather History Graph

Search for Another Location

Airport or City:

Trip Planner

Search our weather history database for the weather conditions in past years. The results will help you decide how hot, cold, wet, or windy it might be!

Date:

Astronomy

Oct. 05, 2012 Rise Set
Actual Time 7:00 AM CDT 6:29 PM CDT
Civil Twilight 6:31 AM CDT 6:58 PM CDT
Nautical Twilight 5:57 AM CDT 7:32 PM CDT
Astronomical Twilight 5:24 AM CDT 8:05 PM CDT
Moon 9:43 PM CDT (10/5) 12:17 PM CDT (10/5)
Length of Visible Light 12h 27m
Length of Day
11h 29m
Waning Gibbous, 74% of the Moon is Illuminated
Oct 5
Waning Gibbous
Oct 8
Last Quarter
Oct 15
New
Oct 21
First Quarter
Oct 29
Full

Hourly Weather History & Observations

Time (CDT) Temp. Windchill Dew Point Humidity Pressure Visibility Wind Dir Wind Speed Gust Speed Precip Events Conditions
12:56 AM 41.0 °F 39.0 °F 31.1 °F 68% 30.07 in 10.0 mi WNW 3.5 mph - N/A   Mostly Cloudy
1:56 AM 38.8 °F 33.8 °F 30.0 °F 71% 30.10 in 10.0 mi WSW 6.9 mph - N/A   Partly Cloudy
2:56 AM 41.0 °F 35.8 °F 28.0 °F 60% 30.08 in 10.0 mi West 8.1 mph - N/A   Clear
3:56 AM 37.9 °F 32.1 °F 28.0 °F 68% 30.08 in 10.0 mi WSW 8.1 mph - N/A   Clear
4:56 AM 38.8 °F 32.6 °F 28.0 °F 65% 30.09 in 10.0 mi WSW 9.2 mph - N/A   Mostly Cloudy
5:56 AM 36.9 °F 30.7 °F 28.0 °F 70% 30.09 in 10.0 mi WSW 8.1 mph - N/A   Partly Cloudy
6:56 AM 34.9 °F 27.7 °F 28.0 °F 76% 30.09 in 10.0 mi SW 9.2 mph - N/A   Clear
7:56 AM 36.9 °F 30.1 °F 29.1 °F 74% 30.09 in 10.0 mi WSW 9.2 mph - N/A   Clear
8:56 AM 41.9 °F 34.6 °F 30.0 °F 63% 30.08 in 10.0 mi West 13.8 mph - N/A   Clear
9:56 AM 45.0 °F 38.9 °F 30.0 °F 56% 30.08 in 10.0 mi West 12.7 mph 25.3 mph N/A   Clear
10:56 AM 46.9 °F - 28.0 °F 48% 30.06 in 10.0 mi WSW 21.9 mph 26.5 mph N/A   Clear
11:56 AM 50.0 °F - 27.1 °F 41% 30.05 in 10.0 mi West 16.1 mph 25.3 mph N/A   Clear
12:56 PM 47.8 °F - 26.1 °F 43% 30.03 in 10.0 mi WSW 18.4 mph 25.3 mph N/A   Partly Cloudy
1:56 PM 48.9 °F - 25.2 °F 40% 30.01 in 10.0 mi West 15.0 mph 26.5 mph N/A   Clear
2:56 PM 50.9 °F - 25.2 °F 37% 29.99 in 10.0 mi West 16.1 mph 21.9 mph N/A   Clear
3:56 PM 50.9 °F - 26.1 °F 38% 30.01 in 10.0 mi WSW 12.7 mph 23.0 mph N/A   Scattered Clouds
4:56 PM 50.0 °F - 25.2 °F 38% 30.00 in 10.0 mi West 15.0 mph - N/A   Scattered Clouds
5:56 PM 48.9 °F - 26.1 °F 41% 30.00 in 10.0 mi West 12.7 mph - N/A   Mostly Cloudy
6:56 PM 46.9 °F - 26.1 °F 44% 30.03 in 10.0 mi WNW 17.3 mph 24.2 mph N/A   Overcast
7:56 PM 45.9 °F 39.1 °F 26.1 °F 46% 30.04 in 10.0 mi West 16.1 mph 25.3 mph N/A   Overcast
8:56 PM 43.9 °F 36.8 °F 25.2 °F 48% 30.04 in 10.0 mi NNW 15.0 mph 21.9 mph N/A   Overcast
9:56 PM 41.0 °F 31.9 °F 24.1 °F 51% 30.05 in 10.0 mi WNW 19.6 mph 28.8 mph N/A   Overcast
10:56 PM 41.0 °F 33.9 °F 22.1 °F 47% 30.04 in 10.0 mi WNW 12.7 mph 23.0 mph N/A   Overcast
11:56 PM 39.9 °F 32.1 °F 22.1 °F 49% 30.04 in 10.0 mi WNW 13.8 mph 21.9 mph N/A   Overcast